User: anonymous   Login
Location: Carnetin
(48.9010°N, 2.7059°E)
Time: 16:52:45
(UTC+00:00)
Language:

Cosmos 1821 Rocket - Orbit

View from above orbital plane
View from above orbital plane
View from above satellite
View from above satellite

Ground track
Ground track

The orbit data is extracted from the following two-line orbital elements,

1 17526U 87017B   22023.91179818  .00000145  00000-0  13138-3 0  9996
2 17526  82.8994 223.3204 0039307 296.2136  63.4982 13.76923219737383
Epoch (UTC): 23 January 2022 21:52:59
Eccentricity: 0.0039307
inclination: 82.8994°
perigee height: 946 km
apogee height: 1004 km
right ascension of ascending node: 223.3204°
argument of perigee: 296.2136°
revolutions per day: 13.76923219
mean anomaly at epoch: 63.4982°
orbit number at epoch: 73738

The dashed part of the orbit path shows where the satellite is in the earth's shadow,  

DLR